Вернуться в каталог

NIMIQ 4

АктивенСвязьGEO
NORAD 33373·PAYLOAD·🇨🇦 Canada

Запущен Sep 19, 2008 с Baikonur Cosmodrome

Loading…

TLE

СвежийSource: CelesTrak SupGP

Эпоха: Sep 14, 2026, 04:59 UTC

1 33373C 08044A   26257.20833333 -.00000135  00000+0  00000+0 0  2577
2 33373   0.0129 115.0960 0002029  49.5584 181.5551  1.00271371    12

Отслеживайте NIMIQ 4 в реальном времени с AllMySat

Download on the App Store